,,,PA_Meas_PMT16A,,PR_Meas_QMR101_102,,RH_Meas_QMH101,,SR_Meas_QMS101,,TA_Meas_QMH101,,GenWind,,GenWind,
date,time,status,PA,status,PR,status,RH,status,SR,status,TA,status,DirAvg,status,SpdAvg,
2012-01-24, 12:17:04,VALID,1002.33,VALID,0.5,VALID,92.5231,VALID,111.178,VALID,23.7443,VALID,267,VALID,1.91641,
2012-01-24, 12:18:04,VALID,1002.31,VALID,0,VALID,92.874,VALID,120.796,VALID,23.608,VALID,318,VALID,1.52148,
2012-01-24, 12:19:04,VALID,1002.28,VALID,0,VALID,93.3088,VALID,131.718,VALID,23.5284,VALID,314,VALID,1.45625,
2012-01-24, 12:20:04,VALID,1002.29,VALID,0,VALID,93.7132,VALID,143.211,VALID,23.5284,VALID,353,VALID,1.47461,
2012-01-24, 12:21:04,VALID,1002.27,VALID,0,VALID,93.9878,VALID,151.933,VALID,23.5089,VALID,301,VALID,1.18555,
2012-01-24, 12:22:04,VALID,1002.26,VALID,0.5,VALID,94.0031,VALID,162.529,VALID,23.5107,VALID,336,VALID,0.711719,
2012-01-24, 12:23:04,VALID,1002.27,VALID,0,VALID,94.3921,VALID,167.745,VALID,23.5478,VALID,349,VALID,0.530078,
2012-01-24, 12:24:04,VALID,1002.24,VALID,0,VALID,94.621,VALID,168.886,VALID,23.6469,VALID,194,VALID,0.664063,
2012-01-24, 12:25:04,VALID,1002.18,VALID,0,VALID,94.1938,VALID,168.56,VALID,23.608,VALID,296,VALID,2.66055,
2012-01-24, 12:26:04,VALID,1002.2,VALID,0.5,VALID,94.4455,VALID,166.115,VALID,23.6275,VALID,278,VALID,0.936328,
2012-01-24, 12:27:04,VALID,1002.19,VALID,0,VALID,94.4379,VALID,165.382,VALID,23.6275,VALID,285,VALID,1.00469,
2012-01-24, 12:28:04,VALID,1002.16,VALID,0,VALID,94.5829,VALID,163.67,VALID,23.6455,65535,65535,
2012-01-24, 14:30:04,VALID,1000.65,VALID,0,VALID,94.9567,VALID,119.248,VALID,24.2681,VALID,94,VALID,0.307031,
2012-01-24, 14:31:04,VALID,1000.61,VALID,0,VALID,95.0253,VALID,127.643,VALID,24.2875,VALID,94,VALID,0.541406,
2012-01-24, 14:32:04,VALID,1000.56,VALID,0,VALID,94.9262,VALID,137.506,VALID,24.2486,VALID,94,VALID,0.359375,
2012-01-24, 14:33:04,VALID,1000.49,VALID,0,VALID,94.888,VALID,147.287,VALID,24.2486,VALID,95,VALID,0.509766,
2012-01-24, 14:34:04,VALID,1000.4,VALID,0,VALID,95.0101,VALID,156.986,VALID,24.307,VALID,105,VALID,0.506641,
2012-01-24, 14:35:04,VALID,1000.36,VALID,0,VALID,94.827,VALID,165.871,VALID,24.2875,VALID,222,VALID,0.822266,
2012-01-24, 14:36:04,VALID,1000.32,VALID,0,VALID,95.033,VALID,174.837,VALID,24.3441,VALID,224,VALID,0.578125,
2012-01-24, 14:37:04,VALID,1000.32,VALID,0,VALID,94.9643,VALID,182.743,VALID,24.3867,VALID,225,VALID,0.549219,
2012-01-24, 14:38:04,VALID,1000.29,VALID,0,VALID,94.949,VALID,189.671,VALID,24.4238,VALID,225,VALID,0.594141,
2012-01-24, 14:39:04,VALID,1000.28,VALID,0,VALID,95.1016,VALID,196.029,VALID,24.4841,VALID,225,VALID,0.159375,
2012-01-24, 14:40:04,VALID,1000.26,VALID,0,VALID,95.2313,VALID,202.142,VALID,24.599,VALID,225,VALID,0,
2012-01-24, 14:41:04,VALID,1000.29,VALID,0,VALID,95.155,VALID,208.011,VALID,24.6185,VALID,226,VALID,0.26875,
2012-01-24, 14:42:04,VALID,1000.24,VALID,0,VALID,94.9872,VALID,213.472,VALID,24.6185,VALID,226,VALID,0,
2012-01-24, 14:43:04,VALID,1000.24,VALID,0,VALID,94.7736,VALID,219.585,VALID,24.5193,VALID,226,VALID,0,
2012-01-24, 14:44:04,VALID,1000.2,VALID,0.5,VALID,94.7354,VALID,225.535,VALID,24.5212,VALID,226,VALID,0,
2012-01-24, 14:45:04,VALID,1000.21,VALID,0,VALID,94.9109,VALID,233.849,VALID,24.6166,VALID,233,VALID,0.480859,
2012-01-24, 14:46:04,VALID,1000.17,VALID,0,VALID,94.9033,VALID,242.978,VALID,24.6556,VALID,234,VALID,0.203125,
2012-01-24, 14:47:04,VALID,1000.15,VALID,0,VALID,94.8346,VALID,251.373,VALID,24.6537,VALID,6,VALID,0.823047,
2012-01-24, 14:48:04,VALID,1000.15,VALID,0,VALID,94.5371,VALID,258.057,VALID,24.6361,VALID,359,VALID,0.608594,
2012-01-24, 14:49:04,VALID,1000.14,VALID,0,VALID,94.4379,VALID,263.437,VALID,24.6361,VALID,358,VALID,0.684375,
2012-01-24, 14:50:04,VALID,1000.12,VALID,0,VALID,94.6439,VALID,269.224,VALID,24.6945,VALID,355,VALID,0.439453,
2012-01-24, 14:51:04,VALID,1000.08,VALID,0,VALID,94.8117,VALID,268.653,VALID,24.7919,VALID,355,VALID,0.167969,
2012-01-24, 14:52:04,VALID,1000.09,VALID,0,VALID,95.0024,VALID,264.333,VALID,24.969,VALID,355,VALID,0.243359,
2012-01-24, 14:53:04,VALID,1000.07,VALID,0,VALID,94.8194,VALID,266.453,VALID,24.9476,VALID,355,VALID,0.728516,
2012-01-24, 14:54:04,VALID,1000.07,VALID,0,VALID,94.9719,VALID,271.506,VALID,25.0839,VALID,351,VALID,0.0257812,
2012-01-24, 14:55:04,VALID,1000.11,VALID,0,VALID,94.9643,VALID,279.25,VALID,25.1813,VALID,357,VALID,0.350391,
2012-01-24, 14:56:04,VALID,1000.14,VALID,0,VALID,94.5981,VALID,286.667,VALID,25.1618,VALID,351,VALID,0.654688,
2012-01-24, 14:57:04,VALID,1000.2,VALID,0,VALID,94.1709,VALID,291.476,VALID,25.1248,VALID,351,VALID,0.231641,
2012-01-24, 14:58:04,VALID,1000.24,VALID,0,VALID,94.0717,VALID,295.959,VALID,25.1034,VALID,18,VALID,0.757813,
2012-01-24, 14:59:04,VALID,1000.3,VALID,0,VALID,93.6598,VALID,298.649,VALID,25.0858,VALID,35,VALID,1.04141,
2012-01-24, 15:00:04,VALID,1000.33,VALID,0,VALID,93.0647,VALID,294.981,VALID,25.006,VALID,29,VALID,0.889063,
2012-01-24, 15:01:04,VALID,1000.37,VALID,0,VALID,93.4385,VALID,278.108,VALID,25.0274,VALID,13,VALID,0.366406,
2012-01-24, 15:02:04,VALID,1000.41,VALID,0,VALID,93.5606,VALID,268.898,VALID,25.0469,VALID,13,VALID,0.831641,
2012-01-24, 15:03:04,VALID,1000.4,VALID,0,VALID,93.2631,VALID,262.948,VALID,25.0255,VALID,18,VALID,0.352734,
2012-01-24, 15:04:04,VALID,1000.4,VALID,0,VALID,93.4767,VALID,257.079,VALID,25.1053,VALID,16,VALID,0.533594,
2012-01-24, 15:05:04,VALID,1000.39,VALID,0,VALID,92.34,VALID,251.373,VALID,24.9866,VALID,354,VALID,0.742578,
2012-01-24, 15:06:04,VALID,1000.37,VALID,0,VALID,93.08,VALID,244.445,VALID,25.0255,VALID,354,VALID,0.363281,
2012-01-24, 15:07:04,VALID,1000.36,VALID,0,VALID,93.0723,VALID,238.495,VALID,25.0858,VALID,358,VALID,0.375781,
2012-01-24, 15:08:04,VALID,1000.35,VALID,0,VALID,92.9198,VALID,233.279,VALID,25.1053,VALID,338,VALID,0.114844,
2012-01-24, 15:09:04,VALID,1000.34,VALID,0,VALID,92.6451,VALID,226.513,VALID,25.0839,VALID,323,VALID,0.358984,
2012-01-24, 15:10:04,VALID,1000.35,VALID,0,VALID,92.9884,VALID,220.482,VALID,25.1248,VALID,323,VALID,0,
2012-01-24, 15:11:04,VALID,1000.32,VALID,0,VALID,93.5072,VALID,214.124,VALID,25.2007,VALID,328,VALID,0.323828,
2012-01-24, 15:12:04,VALID,1000.31,VALID,0,VALID,92.6222,VALID,208.418,VALID,25.2416,VALID,349,VALID,0.83125,
2012-01-24, 15:13:04,VALID,1000.27,VALID,0,VALID,92.6375,VALID,203.528,VALID,25.2806,VALID,348,VALID,0.352344,
2012-01-24, 15:14:04,VALID,1000.27,VALID,0,VALID,92.5765,VALID,199.452,VALID,25.2981,VALID,311,VALID,0.711719,
2012-01-24, 15:15:04,VALID,1000.21,VALID,0,VALID,91.7449,VALID,195.621,VALID,25.3195,VALID,284,VALID,1.03789,
2012-01-24, 15:16:04,VALID,1000.22,VALID,0,VALID,92.729,VALID,192.361,VALID,25.3584,VALID,268,VALID,0.540625,
2012-01-24, 15:17:04,VALID,1000.18,VALID,0,VALID,91.6457,VALID,188.693,VALID,25.376,VALID,295,VALID,0.951172,
2012-01-24, 15:18:04,VALID,1000.19,VALID,0,VALID,92.4239,VALID,183.721,VALID,25.4169,VALID,290,VALID,0.428906,
2012-01-24, 15:19:04,VALID,1000.19,VALID,0,VALID,91.722,VALID,179.401,VALID,25.4558,VALID,350,VALID,0.853906,
2012-01-24, 15:20:04,VALID,1000.21,VALID,0,VALID,91.7907,VALID,176.874,VALID,25.4753,VALID,351,VALID,0.770312,
2012-01-24, 15:21:04,VALID,1000.21,VALID,0,VALID,92.1874,VALID,175.815,VALID,25.5357,VALID,351,VALID,0.609766,
2012-01-24, 15:22:04,VALID,1000.23,VALID,0,VALID,91.722,VALID,176.304,VALID,25.5727,VALID,351,VALID,0.50625,
2012-01-24, 15:23:04,VALID,1000.25,VALID,0,VALID,92.3934,VALID,178.178,VALID,25.6311,VALID,353,VALID,0.484766,
2012-01-24, 15:24:04,VALID,1000.28,VALID,0,VALID,92.1569,VALID,181.602,VALID,25.67,VALID,9,VALID,0.633984,
2012-01-24, 15:25:04,VALID,1000.3,VALID,0,VALID,92.2408,VALID,187.144,VALID,25.7674,VALID,18,VALID,0.459766,
2012-01-24, 15:26:04,VALID,1000.33,VALID,0,VALID,91.1346,VALID,195.458,VALID,25.748,VALID,37,VALID,0.533984,
2012-01-24, 15:27:04,VALID,1000.38,VALID,0,VALID,91.4626,VALID,205.565,VALID,25.7674,VALID,52,VALID,0.3875,
2012-01-24, 15:28:04,VALID,1000.39,VALID,0,VALID,91.9814,VALID,215.265,VALID,25.8668,VALID,54,VALID,0.501172,
2012-01-24, 15:29:04,VALID,1000.41,VALID,0,VALID,91.2948,VALID,225.698,VALID,25.8863,VALID,73,VALID,0.574219,
2012-01-24, 15:30:04,VALID,1000.39,VALID,0,VALID,91.4855,VALID,235.724,VALID,25.8648,VALID,74,VALID,0.312109,
2012-01-24, 15:31:04,VALID,1000.39,VALID,0,VALID,90.4785,VALID,245.912,VALID,25.8843,VALID,43,VALID,0.603906,
2012-01-24, 15:32:04,VALID,1000.36,VALID,0,VALID,90.4633,VALID,255.286,VALID,25.8843,VALID,20,VALID,0.537891,
2012-01-24, 15:33:04,VALID,1000.33,VALID,0,VALID,90.509,VALID,264.741,VALID,25.9038,VALID,19,VALID,0.588281,
2012-01-24, 15:34:04,VALID,1000.33,VALID,0,VALID,90.8981,VALID,272.321,VALID,25.9447,VALID,14,VALID,0.731641,
2012-01-24, 15:35:04,VALID,1000.29,VALID,0,VALID,90.5624,VALID,278.842,VALID,25.9232,VALID,10,VALID,0.689062,
2012-01-24, 15:36:04,VALID,1000.25,VALID,0,VALID,90.3259,VALID,284.711,VALID,25.9622,VALID,10,VALID,0.591016,
2012-01-24, 15:37:04,VALID,1000.23,VALID,0,VALID,90.654,VALID,289.194,VALID,25.9817,VALID,10,VALID,0.341016,
2012-01-24, 15:38:04,VALID,1000.19,VALID,0,VALID,90.8066,VALID,292.209,VALID,26.0381,VALID,10,VALID,0.352344,
2012-01-24, 15:39:04,VALID,1000.19,VALID,0,VALID,91.0507,VALID,294.084,VALID,26.1355,VALID,320,VALID,0.654688,
2012-01-24, 15:40:04,VALID,1000.15,VALID,0,VALID,90.9363,VALID,294.492,VALID,26.2154,VALID,305,VALID,0.424219,
2012-01-24, 15:41:04,VALID,1000.1,VALID,0,VALID,90.7226,VALID,294.655,VALID,26.2933,VALID,284,VALID,0.539063,
2012-01-24, 15:42:04,VALID,1000.09,VALID,0,VALID,91.3101,VALID,312.505,VALID,26.3907,VALID,321,VALID,0.359766,
2012-01-24, 15:43:04,VALID,1000.06,VALID,0,VALID,89.38,VALID,300.116,VALID,26.3887,VALID,5,VALID,0.778516,
2012-01-24, 15:44:04,VALID,1000.06,VALID,0,VALID,89.502,VALID,284.466,VALID,26.4687,VALID,288,VALID,0.875391,
2012-01-24, 15:45:04,VALID,1000.09,VALID,0,VALID,88.7849,VALID,289.275,VALID,26.5076,VALID,349,VALID,0.910937,
2012-01-24, 15:46:04,VALID,1000.12,VALID,0,VALID,88.2509,VALID,316.255,VALID,26.4881,VALID,351,VALID,0.784375,
2012-01-24, 15:47:04,VALID,1000.12,VALID,0,VALID,87.8008,VALID,444.713,VALID,26.4881,VALID,352,VALID,0.674609,
2012-01-24, 15:48:04,VALID,1000.13,VALID,0,VALID,89.174,VALID,577.654,VALID,26.5271,VALID,352,VALID,0.547266,
2012-01-24, 15:49:04,VALID,1000.15,VALID,0,VALID,87.1905,VALID,488.727,VALID,26.5855,VALID,5,VALID,0.922266,
2012-01-24, 15:50:04,VALID,1000.14,VALID,0,VALID,88.5103,VALID,359.21,VALID,26.644,VALID,8,VALID,0.533984,
2012-01-24, 15:51:04,VALID,1000.17,VALID,0,VALID,87.9915,VALID,287.156,VALID,26.7024,VALID,357,VALID,0.745703,
2012-01-24, 15:52:04,VALID,1000.15,VALID,0,VALID,86.5115,VALID,268.083,VALID,26.6635,VALID,2,VALID,0.389062,
2012-01-24, 15:53:04,VALID,1000.15,VALID,0,VALID,87.2362,VALID,250.069,VALID,26.683,VALID,2,VALID,0.505469,
2012-01-24, 15:54:04,VALID,1000.14,VALID,0,VALID,86.3971,VALID,241.918,VALID,26.7219,VALID,285,VALID,0.776953,
2012-01-24, 15:55:04,VALID,1000.17,VALID,0,VALID,84.3907,VALID,240.614,VALID,26.683,VALID,289,VALID,1.29805,
2012-01-24, 15:56:04,VALID,1000.17,VALID,0,VALID,85.8249,VALID,256.672,VALID,26.644,VALID,285,VALID,0.530469,
2012-01-24, 15:57:04,VALID,1000.16,VALID,0,VALID,86.7099,VALID,337.936,VALID,26.685,VALID,295,VALID,0.385547,
2012-01-24, 15:58:04,VALID,1000.18,VALID,0,VALID,87.16,VALID,265.556,VALID,26.7414,VALID,328,VALID,0.447266,
2012-01-24, 15:59:04,VALID,1000.19,VALID,0,VALID,87.015,VALID,364.752,VALID,26.7978,VALID,334,VALID,0.392578,
2012-01-24, 16:00:04,VALID,1000.21,VALID,0,VALID,85.5274,VALID,333.045,VALID,26.8973,VALID,341,VALID,1.23789,
2012-01-24, 16:01:04,VALID,1000.23,VALID,0,VALID,86.336,VALID,286.422,VALID,26.9167,VALID,341,VALID,0.511328,
2012-01-24, 16:02:04,VALID,1000.24,VALID,0,VALID,85.0925,VALID,322.042,VALID,26.9752,VALID,288,VALID,1.14883,
2012-01-24, 16:03:04,VALID,1000.26,VALID,0,VALID,85.2222,VALID,337.936,VALID,26.9947,VALID,287,VALID,0.827734,
2012-01-24, 16:04:04,VALID,1000.29,VALID,0,VALID,86.5191,VALID,296.448,VALID,27.0726,VALID,343,VALID,0.492578,
2012-01-24, 16:05:04,VALID,1000.28,VALID,0,VALID,85.6647,VALID,270.854,VALID,27.1331,VALID,326,VALID,0.360547,
2012-01-24, 16:06:04,VALID,1000.32,VALID,0,VALID,86.7785,VALID,264.333,VALID,27.1895,VALID,315,VALID,0.263281,
2012-01-24, 16:07:04,VALID,1000.26,VALID,0,VALID,85.0696,VALID,263.029,VALID,27.2111,VALID,360,VALID,1.34805,
2012-01-24, 16:08:04,VALID,1000.27,VALID,0,VALID,84.2076,VALID,252.841,VALID,27.1506,VALID,348,VALID,0.870703,
2012-01-24, 16:09:04,VALID,1000.27,VALID,0,VALID,84.2991,VALID,243.63,VALID,27.1136,VALID,349,VALID,1.03437,
2012-01-24, 16:10:04,VALID,1000.22,VALID,0,VALID,85.3061,VALID,235.235,VALID,27.1157,VALID,343,VALID,0.638672,
2012-01-24, 16:11:04,VALID,1000.25,VALID,0,VALID,86.748,VALID,222.927,VALID,27.0726,VALID,235,VALID,0.361328,
2012-01-24, 16:12:04,VALID,1000.25,VALID,0,VALID,84.94,VALID,212.494,VALID,27.1136,VALID,288,VALID,0.837109,
2012-01-24, 16:13:04,VALID,1000.24,VALID,0,VALID,86.1529,VALID,203.365,VALID,27.1331,VALID,333,VALID,0.597656,
2012-01-24, 16:14:04,VALID,1000.19,VALID,0,VALID,86.5725,VALID,194.562,VALID,27.1526,VALID,340,VALID,0.414844,
2012-01-24, 16:15:04,VALID,1000.18,VALID,0,VALID,85.1002,VALID,185.677,VALID,27.1331,VALID,358,VALID,0.598437,
2012-01-24, 16:16:04,VALID,1000.19,VALID,0,VALID,86.1682,VALID,176.385,VALID,27.0942,VALID,358,VALID,0.416797,
2012-01-24, 16:17:04,VALID,1000.16,VALID,0,VALID,86.9006,VALID,166.441,VALID,27.0942,VALID,359,VALID,0.563281,
2012-01-24, 16:18:04,VALID,1000.13,VALID,0,VALID,86.2064,VALID,157.883,VALID,27.0357,VALID,3,VALID,0.932422,
2012-01-24, 16:19:04,VALID,1000.09,VALID,0,VALID,84.734,VALID,150.71,VALID,26.9772,VALID,31,VALID,1.48086,
2012-01-24, 16:20:04,VALID,1000.09,VALID,0,VALID,85.9241,VALID,146.064,VALID,26.8798,VALID,7,VALID,1.10938,
2012-01-24, 16:21:04,VALID,1000.1,VALID,0,VALID,86.6107,VALID,141.826,VALID,26.8408,VALID,360,VALID,0.714063,
2012-01-24, 16:22:04,VALID,1000.06,VALID,0,VALID,86.9464,VALID,137.506,VALID,26.8019,VALID,358,VALID,0.503125,
2012-01-24, 16:29:04,VALID,1000.14,VALID,0,VALID,85.5884,VALID,134.408,VALID,26.8973,VALID,14,VALID,0.735937,
2012-01-24, 16:30:04,VALID,1000.14,VALID,0,VALID,84.8103,VALID,136.609,VALID,26.8798,VALID,13,VALID,0.796484,
2012-01-24, 16:31:04,VALID,1000.14,VALID,0,VALID,85.5503,VALID,137.669,VALID,26.8193,VALID,13,VALID,0.333203,
2012-01-24, 16:32:04,VALID,1000.17,VALID,0,VALID,84.94,VALID,137.098,VALID,26.7998,VALID,13,VALID,0.819141,
2012-01-24, 16:53:04,INVALID - VALUE NOT AVAILABLE,0,VALID,0,INVALID - VALUE NOT AVAILABLE,0,INVALID - VALUE NOT AVAILABLE,0,VALID,26.7998,INVALID,360,INVALID,0,
